period_start,C,m1,H,J0,J1,J2,J3,J4,J5,JA,JB,JC,JD,JJ,JK,JN,#
2018-08-24 00:02:03,0.00,0.05,0.00,24.01,27.60,30.51,14.00,47.06,1026.19,2026.99,3424.01,3071.00,3535.58,600.05,599.67,1.79,0000 0000 0000 0000 000000
2018-08-24 00:07:04,0.00,0.05,0.00,24.02,27.60,30.50,13.97,46.98,1026.31,2026.99,3423.98,3070.99,3535.04,599.88,599.51,1.84,0000 0000 0000 0000 000000
2018-08-24 00:12:06,0.01,0.05,0.00,24.03,27.60,30.52,14.06,46.96,1026.38,2026.99,3423.59,3070.92,3534.99,600.10,599.74,1.89,0000 0000 0000 0000 000000
2018-08-24 00:17:07,0.03,0.05,0.00,24.04,27.60,30.51,14.03,47.02,1026.38,2026.99,3423.03,3070.38,3534.60,600.07,599.61,1.94,0000 0000 0000 0000 000000
2018-08-24 00:22:09,0.01,0.05,0.00,24.03,27.61,30.52,13.99,46.92,1026.38,2026.99,3422.87,3070.02,3534.03,599.82,599.48,1.99,0000 0000 0000 0000 000000
2018-08-24 00:27:10,0.01,0.05,0.00,24.02,27.61,30.52,14.07,46.92,1026.39,2026.98,3422.16,3070.00,3533.98,600.37,600.07,2.04,0000 0000 0000 0000 000000
2018-08-24 00:32:11,0.00,0.05,0.00,24.03,27.62,30.50,13.94,46.91,1026.40,2026.99,3422.00,3069.97,3533.65,599.69,599.36,2.09,0000 0000 0000 0000 000000
2018-08-24 00:37:13,0.00,0.05,0.00,24.02,27.62,30.49,14.03,46.91,1026.43,2026.99,3421.90,3069.97,3533.17,600.05,599.74,2.14,0000 0000 0000 0000 000000
2018-08-24 00:42:14,0.03,0.05,0.00,24.02,27.62,30.52,13.99,46.81,1026.44,2026.99,3421.23,3069.46,3533.00,600.03,599.74,2.19,0000 0000 0000 0000 000000
2018-08-24 00:47:15,0.00,0.06,0.00,24.03,27.62,30.53,13.98,46.78,1026.52,2026.99,3420.99,3069.03,3532.80,600.15,599.90,2.24,0000 0000 0000 0000 000000
2018-08-24 00:52:17,0.01,0.06,0.00,24.05,27.62,30.53,14.02,46.69,1026.65,2026.99,3420.73,3069.00,3532.08,600.02,599.79,2.29,0000 0000 0000 0000 000000
2018-08-24 00:57:18,0.00,0.06,0.00,24.07,27.62,30.52,13.99,46.61,1026.68,2026.99,3420.10,3069.00,3532.00,599.85,599.62,2.34,0000 0000 0000 0000 000000
2018-08-24 01:02:19,0.00,0.06,0.00,24.07,27.62,30.50,13.98,46.98,1026.70,2026.99,3420.00,3068.95,3531.98,599.83,599.57,2.39,0000 0000 0000 0000 000000
2018-08-24 01:07:21,0.03,0.06,0.00,24.06,27.62,30.49,14.02,46.84,1026.78,2026.99,3419.85,3068.53,3531.39,599.94,599.72,2.44,0000 0000 0000 0000 000000
2018-08-24 01:12:22,0.01,0.06,0.00,24.06,27.62,30.50,14.01,46.77,1026.85,2026.99,3419.10,3068.04,3531.00,600.02,599.84,2.49,0000 0000 0000 0000 000000
2018-08-24 01:17:24,0.02,0.06,0.00,24.07,27.62,30.48,14.03,46.66,1026.87,2026.99,3418.45,3067.99,3530.46,599.94,599.82,2.54,0000 0000 0000 0000 000000
2018-08-24 01:22:25,0.04,0.06,0.00,24.07,27.62,30.50,14.04,46.63,1026.87,2026.99,3417.56,3067.30,3529.85,600.10,600.04,2.59,0000 0000 0000 0000 000000
2018-08-24 01:27:26,0.03,0.06,0.00,24.09,27.62,30.49,13.96,46.66,1026.87,2026.99,3416.61,3066.83,3529.05,600.07,599.86,2.64,0000 0000 0000 0000 000000
2018-08-24 01:32:27,0.04,0.07,0.00,24.09,27.63,30.48,13.95,46.66,1026.88,2026.99,3415.84,3066.07,3528.35,599.80,599.64,2.69,0000 0000 0000 0000 000000
2018-08-24 01:37:29,0.01,0.07,0.00,24.10,27.64,30.46,14.04,46.63,1026.89,2026.98,3415.05,3065.96,3528.00,600.05,599.89,2.74,0000 0000 0000 0000 000000
2018-08-24 01:42:30,0.05,0.07,0.00,24.11,27.64,30.50,13.92,46.75,1026.89,2026.98,3414.19,3065.21,3527.22,599.76,599.68,2.79,0000 0000 0000 0000 000000
2018-08-24 01:47:31,0.02,0.07,0.00,24.11,27.65,30.49,14.04,46.65,1026.90,2026.96,3413.41,3064.97,3526.66,599.92,599.74,2.84,0000 0000 0000 0000 000000
2018-08-24 01:52:33,0.04,0.07,0.00,24.12,27.65,30.46,14.02,46.73,1026.89,2026.95,3412.61,3064.25,3526.01,600.08,599.98,2.89,0000 0000 0000 0000 000000
2018-08-24 01:57:34,0.02,0.08,0.00,24.12,27.65,30.47,14.01,46.68,1026.96,2026.97,3411.82,3064.00,3525.31,599.86,599.64,2.94,0000 0000 0000 0000 000000
2018-08-24 02:02:35,0.02,0.08,0.00,24.12,27.65,30.49,14.07,46.62,1027.01,2026.97,3411.03,3063.69,3524.97,600.13,599.99,2.99,0000 0000 0000 0000 000000
2018-08-24 02:07:36,0.04,0.08,0.00,24.12,27.65,30.45,14.03,46.62,1027.04,2026.96,3410.32,3063.04,3524.22,600.00,599.79,3.04,0000 0000 0000 0000 000000
2018-08-24 02:12:37,0.04,0.08,0.00,24.13,27.65,30.45,13.96,46.69,1027.09,2026.94,3409.41,3062.51,3523.67,600.09,599.81,3.09,0000 0000 0000 0000 000000
2018-08-24 02:17:38,0.02,0.08,0.00,24.12,27.66,30.50,14.06,46.74,1027.12,2026.87,3408.32,3061.94,3522.86,600.11,600.03,3.14,0000 0000 0000 0000 000000
2018-08-24 02:22:40,0.04,0.08,0.00,24.13,27.67,30.48,14.00,46.76,1027.19,2026.85,3407.12,3061.11,3522.04,599.69,599.76,3.20,0000 0000 0000 0000 000000
2018-08-24 02:27:41,0.03,0.09,0.00,24.14,27.67,30.50,14.02,46.67,1027.29,2026.74,3406.19,3060.80,3521.30,600.08,599.94,3.25,0000 0000 0000 0000 000000
2018-08-24 02:32:43,0.03,0.09,0.00,24.15,27.67,30.48,14.06,46.73,1027.29,2026.69,3405.45,3060.10,3520.90,599.89,599.82,3.30,0000 0000 0000 0000 000000
2018-08-24 02:37:44,-0.02,0.09,0.00,24.16,27.67,30.50,14.05,46.70,1027.22,2026.28,3405.00,3060.00,3520.14,600.28,600.14,3.35,0000 0000 0000 0000 000000
2018-08-24 02:42:46,0.00,0.09,0.00,24.16,27.67,30.49,14.07,46.65,1027.26,2026.28,3404.77,3059.98,3520.01,600.15,599.88,3.40,0000 0000 0000 0000 000000
2018-08-24 02:47:47,0.01,0.09,0.00,24.17,27.67,30.50,13.94,46.73,1027.26,2026.15,3404.08,3059.64,3519.98,599.60,599.53,3.45,0000 0000 0000 0000 000000
2018-08-24 02:52:48,0.02,0.09,0.00,24.17,27.68,30.50,13.90,46.63,1027.23,2026.09,3403.99,3059.05,3519.35,599.97,599.82,3.50,0000 0000 0000 0000 000000
2018-08-24 02:57:49,0.01,0.09,0.00,24.17,27.70,30.48,14.03,46.63,1027.22,2026.15,3403.58,3059.01,3519.04,599.68,599.56,3.55,0000 0000 0000 0000 000000
2018-08-24 03:02:50,0.00,0.09,0.00,24.18,27.70,30.47,13.95,46.63,1027.26,2026.07,3403.04,3059.00,3519.00,599.83,599.77,3.60,0000 0000 0000 0000 000000
2018-08-24 03:07:51,0.02,0.09,0.00,24.19,27.70,30.51,14.00,46.70,1027.34,2026.07,3402.88,3058.81,3518.75,599.90,599.83,3.65,0000 0000 0000 0000 000000
2018-08-24 03:12:53,0.04,0.09,0.00,24.19,27.70,30.44,14.06,46.66,1027.35,2026.08,3402.14,3058.13,3518.06,600.04,599.98,3.70,0000 0000 0000 0000 000000
2018-08-24 03:17:54,0.02,0.09,0.00,24.20,27.71,30.48,13.94,46.60,1027.36,2026.08,3401.56,3057.95,3517.72,599.59,599.42,3.75,0000 0000 0000 0000 000000
2018-08-24 03:22:55,0.05,0.10,0.00,24.20,27.72,30.49,13.99,46.56,1027.36,2026.08,3400.47,3057.14,3516.79,600.01,599.77,3.80,0000 0000 0000 0000 000000
2018-08-24 03:27:57,0.05,0.10,0.00,24.20,27.72,30.52,13.98,46.67,1027.36,2026.09,3399.39,3056.44,3515.85,599.93,599.79,3.85,0000 0000 0000 0000 000000
2018-08-24 03:32:58,0.04,0.10,0.00,24.22,27.72,30.52,14.12,46.63,1027.36,2026.03,3398.07,3055.68,3514.89,600.12,599.92,3.90,0000 0000 0000 0000 000000
2018-08-24 03:37:59,0.04,0.10,0.00,24.22,27.73,30.49,14.01,46.60,1027.36,2026.02,3396.97,3054.93,3514.00,599.98,599.85,3.95,0000 0000 0000 0000 000000
2018-08-24 03:43:00,0.06,0.11,0.00,24.24,27.75,30.49,14.01,46.63,1027.36,2026.04,3395.76,3054.08,3513.07,600.07,599.90,4.00,0000 0000 0000 0000 000000
2018-08-24 03:48:01,0.05,0.11,0.00,24.24,27.75,30.52,14.10,46.63,1027.36,2026.02,3394.51,3053.28,3512.09,600.34,600.10,4.05,0000 0000 0000 0000 000000
2018-08-24 03:53:03,0.05,0.11,0.00,24.25,27.75,30.52,14.01,46.68,1027.37,2026.01,3393.26,3052.39,3511.06,600.02,599.83,4.10,0000 0000 0000 0000 000000
2018-08-24 03:58:05,0.05,0.11,0.00,24.26,27.77,30.57,14.04,46.67,1027.38,2026.01,3391.89,3051.61,3510.06,600.36,600.17,4.15,0000 0000 0000 0000 000000
2018-08-24 04:03:06,0.06,0.12,0.00,24.27,27.77,30.59,14.05,46.63,1027.46,2026.01,3390.65,3050.62,3508.95,600.36,600.24,4.20,0000 0000 0000 0000 000000
2018-08-24 04:08:07,0.06,0.12,0.00,24.27,27.77,30.57,13.98,46.70,1027.45,2026.00,3389.16,3049.65,3507.74,599.97,599.83,4.25,0000 0000 0000 0000 000000
2018-08-24 04:13:08,0.09,0.13,0.00,24.27,27.79,30.54,14.08,46.77,1027.51,2026.00,3387.10,3048.25,3506.08,600.16,599.94,4.30,0000 0000 0000 0000 000000
2018-08-24 04:18:10,0.10,0.13,0.00,24.29,27.80,30.58,13.97,46.67,1027.54,2025.99,3385.02,3046.81,3504.45,599.70,599.53,4.35,0000 0000 0000 0000 000000
2018-08-24 04:23:11,0.07,0.13,0.00,24.30,27.80,30.59,13.95,46.67,1027.57,2025.99,3383.11,3045.49,3503.05,599.83,599.68,4.40,0000 0000 0000 0000 000000
2018-08-24 04:28:12,0.03,0.14,0.00,24.30,27.80,30.60,14.02,46.80,1027.74,2025.99,3381.97,3044.97,3502.09,600.19,600.15,4.45,0000 0000 0000 0000 000000
2018-08-24 04:33:14,0.04,0.14,0.00,24.32,27.81,30.55,14.00,46.73,1027.80,2025.99,3381.12,3044.26,3501.52,600.10,600.03,4.50,0000 0000 0000 0000 000000
2018-08-24 04:38:15,0.01,0.14,0.00,24.34,27.82,30.56,13.98,46.71,1027.84,2025.99,3380.70,3044.00,3501.01,599.72,599.65,4.55,0000 0000 0000 0000 000000
2018-08-24 04:43:16,0.03,0.14,0.00,24.33,27.82,30.62,14.00,46.63,1027.84,2025.99,3380.00,3043.76,3500.36,599.99,599.90,4.60,0000 0000 0000 0000 000000
2018-08-24 04:48:18,0.03,0.14,0.00,24.32,27.82,30.62,14.04,46.63,1027.83,2025.99,3379.25,3043.04,3499.99,600.12,600.10,4.65,0000 0000 0000 0000 000000
2018-08-24 04:53:18,0.02,0.14,0.00,24.34,27.84,30.61,14.03,46.62,1027.81,2025.99,3378.86,3042.94,3499.22,599.85,599.75,4.70,0000 0000 0000 0000 000000
2018-08-24 04:58:20,0.04,0.15,0.00,24.35,27.85,30.57,13.98,46.57,1027.82,2025.99,3378.07,3042.20,3498.88,599.61,599.47,4.75,0000 0000 0000 0000 000000
2018-08-24 05:03:21,0.06,0.15,0.00,24.35,27.85,30.56,14.02,46.58,1027.85,2025.99,3376.90,3041.54,3497.84,600.31,600.16,4.80,0000 0000 0000 0000 000000
2018-08-24 05:08:23,0.03,0.15,0.00,24.35,27.85,30.60,14.12,46.68,1027.85,2025.99,3375.81,3040.98,3497.01,600.33,600.28,4.85,0000 0000 0000 0000 000000
2018-08-24 05:13:24,0.05,0.15,0.00,24.36,27.87,30.59,14.02,46.72,1027.85,2025.99,3374.83,3040.23,3496.22,599.98,599.84,4.90,0000 0000 0000 0000 000000
2018-08-24 05:18:25,0.05,0.16,0.00,24.37,27.87,30.60,13.96,46.69,1027.85,2025.98,3373.68,3039.64,3495.27,599.86,599.76,4.95,0000 0000 0000 0000 000000
2018-08-24 05:23:26,0.01,0.16,0.00,24.39,27.87,30.59,14.00,46.64,1027.85,2025.98,3373.03,3039.06,3494.97,599.90,599.67,5.00,0000 0000 0000 0000 000000
2018-08-24 05:28:27,0.01,0.16,0.00,24.38,27.87,30.65,13.90,46.70,1027.85,2025.97,3372.91,3038.98,3494.43,599.89,599.52,5.05,0000 0000 0000 0000 000000
2018-08-24 05:33:29,0.02,0.16,0.00,24.39,27.89,30.62,13.95,46.73,1027.85,2025.97,3372.17,3038.70,3494.01,599.88,599.72,5.10,0000 0000 0000 0000 000000
2018-08-24 05:38:30,0.01,0.16,0.00,24.40,27.90,30.66,14.05,46.64,1027.85,2025.97,3371.99,3038.09,3493.86,600.16,600.02,5.15,0000 0000 0000 0000 000000
2018-08-24 05:43:31,0.01,0.16,0.00,24.40,27.90,30.66,13.99,46.73,1027.85,2025.97,3371.63,3038.00,3493.18,600.00,599.85,5.20,0000 0000 0000 0000 000000
2018-08-24 05:48:33,0.00,0.16,0.00,24.41,27.90,30.62,14.09,46.66,1027.85,2025.90,3371.04,3037.96,3493.00,600.32,600.00,5.25,0000 0000 0000 0000 000000
2018-08-24 05:53:34,0.02,0.16,0.00,24.42,27.91,30.70,13.97,46.67,1027.85,2025.86,3370.98,3037.43,3492.77,599.94,599.65,5.30,0000 0000 0000 0000 000000
2018-08-24 05:58:36,0.03,0.16,0.00,24.42,27.92,30.70,14.01,46.71,1027.85,2025.85,3370.14,3037.01,3492.06,599.94,599.75,5.35,0000 0000 0000 0000 000000
2018-08-24 06:03:37,0.05,0.17,0.00,24.43,27.92,30.69,14.01,46.67,1027.86,2025.62,3368.68,3036.10,3490.99,600.30,599.95,5.40,0000 0000 0000 0000 000000
2018-08-24 06:08:38,0.07,0.17,0.00,24.45,27.92,30.65,13.99,46.73,1027.85,2025.61,3366.71,3034.93,3489.66,600.06,599.72,5.45,0000 0000 0000 0000 000000
2018-08-24 06:13:40,0.06,0.17,0.00,24.45,27.94,30.67,13.88,46.70,1027.85,2025.37,3365.01,3033.86,3488.43,599.59,599.24,5.51,0000 0000 0000 0000 000000
2018-08-24 06:18:41,0.07,0.18,0.00,24.46,27.95,30.68,14.04,46.75,1027.85,2025.19,3363.06,3032.57,3486.89,600.14,599.88,5.56,0000 0000 0000 0000 000000
2018-08-24 06:23:42,0.08,0.18,0.00,24.47,27.95,30.72,14.07,46.73,1027.85,2025.16,3360.94,3031.23,3485.29,600.05,599.70,5.61,0000 0000 0000 0000 000000
2018-08-24 06:28:43,0.08,0.18,0.00,24.47,27.95,30.67,13.98,46.72,1027.86,2025.07,3358.87,3029.88,3483.76,600.01,599.68,5.66,0000 0000 0000 0000 000000
2018-08-24 06:33:45,0.06,0.19,0.00,24.47,27.97,30.69,14.03,46.65,1027.88,2025.06,3357.36,3028.87,3482.52,599.86,599.53,5.71,0000 0000 0000 0000 000000
2018-08-24 06:38:46,0.05,0.19,0.00,24.47,27.97,30.73,13.87,46.63,1027.88,2025.05,3356.02,3028.03,3481.49,599.62,599.28,5.76,0000 0000 0000 0000 000000
2018-08-24 06:43:46,0.05,0.19,0.00,24.49,27.97,30.70,13.96,46.68,1028.01,2025.06,3354.92,3027.22,3480.67,600.06,599.89,5.81,0000 0000 0000 0000 000000
2018-08-24 06:48:47,0.04,0.20,0.00,24.48,27.99,30.68,14.01,46.72,1028.27,2025.02,3353.85,3026.64,3479.84,599.98,599.74,5.86,0000 0000 0000 0000 000000
2018-08-24 06:53:49,0.02,0.20,0.00,24.50,28.00,30.77,14.09,46.77,1028.29,2025.00,3352.97,3026.00,3479.03,600.00,599.78,5.91,0000 0000 0000 0000 000000
2018-08-24 06:58:50,0.05,0.20,0.00,24.50,28.00,30.77,13.97,46.78,1028.23,2025.00,3352.11,3025.38,3478.36,600.13,599.94,5.96,0000 0000 0000 0000 000000
2018-08-24 07:03:51,0.07,0.20,0.00,24.50,28.01,30.79,13.99,46.79,1028.21,2025.00,3350.75,3024.50,3477.34,599.94,599.71,6.01,0000 0000 0000 0000 000000
2018-08-24 07:08:52,0.06,0.21,0.00,24.50,28.02,30.81,14.06,46.89,1028.30,2025.00,3349.31,3023.56,3476.21,600.02,599.87,6.06,0000 0000 0000 0000 000000
2018-08-24 07:13:54,0.06,0.21,0.00,24.51,28.02,30.79,14.02,46.87,1028.33,2025.00,3347.82,3022.62,3475.13,600.13,600.00,6.11,0000 0000 0000 0000 000000
2018-08-24 07:18:55,0.05,0.21,0.00,24.52,28.03,30.86,13.98,46.84,1028.33,2025.00,3346.58,3021.82,3474.12,599.82,599.60,6.16,0000 0000 0000 0000 000000
2018-08-24 07:23:56,0.05,0.22,0.00,24.52,28.05,30.81,13.98,46.76,1028.33,2025.00,3345.24,3021.00,3473.07,599.96,599.75,6.21,0000 0000 0000 0000 000000
2018-08-24 07:28:57,0.05,0.22,0.00,24.52,28.05,30.83,14.05,46.75,1028.33,2025.00,3344.20,3020.16,3472.17,599.69,599.45,6.26,0000 0000 0000 0000 000000
2018-08-24 07:33:58,0.03,0.22,0.00,24.53,28.05,30.85,14.00,46.81,1028.33,2025.00,3343.34,3019.87,3471.53,599.98,599.76,6.31,0000 0000 0000 0000 000000
2018-08-24 07:38:59,0.04,0.22,0.00,24.53,28.05,30.89,14.00,46.80,1028.33,2024.99,3342.51,3019.07,3470.94,600.15,599.89,6.36,0000 0000 0000 0000 000000
2018-08-24 07:44:01,0.02,0.22,0.00,24.53,28.07,30.85,14.00,46.85,1028.33,2024.99,3341.91,3018.83,3470.14,600.09,599.85,6.41,0000 0000 0000 0000 000000
2018-08-24 07:49:02,0.04,0.23,0.00,24.54,28.07,30.84,13.99,46.82,1028.34,2024.98,3341.12,3018.07,3469.69,599.91,599.61,6.46,0000 0000 0000 0000 000000
2018-08-24 07:54:03,0.02,0.23,0.00,24.55,28.07,30.90,13.94,46.75,1028.35,2024.98,3340.42,3017.93,3469.02,599.92,599.69,6.51,0000 0000 0000 0000 000000
2018-08-24 07:59:04,0.03,0.23,0.00,24.55,28.07,30.91,14.11,46.77,1028.34,2024.98,3339.99,3017.21,3468.59,600.27,600.05,6.56,0000 0000 0000 0000 000000
2018-08-24 08:04:06,0.02,0.23,0.00,24.55,28.09,30.86,13.99,46.75,1028.34,2024.99,3339.21,3016.99,3468.01,600.13,599.98,6.61,0000 0000 0000 0000 000000
2018-08-24 08:09:07,0.03,0.23,0.00,24.55,28.10,30.88,14.10,46.81,1028.35,2024.98,3338.90,3016.45,3467.38,600.29,600.02,6.66,0000 0000 0000 0000 000000
2018-08-24 08:14:08,0.02,0.23,0.00,24.55,28.10,30.91,13.99,46.85,1028.35,2024.96,3338.08,3016.01,3466.93,599.66,599.42,6.71,0000 0000 0000 0000 000000
2018-08-24 08:19:09,0.04,0.23,0.00,24.56,28.10,30.92,13.98,46.77,1028.34,2024.91,3337.16,3015.42,3466.09,600.02,599.77,6.76,0000 0000 0000 0000 000000
2018-08-24 08:24:10,0.02,0.24,0.00,24.57,28.11,30.96,14.03,46.77,1028.34,2024.89,3336.57,3014.97,3465.59,600.31,599.93,6.81,0000 0000 0000 0000 000000
2018-08-24 08:29:12,0.03,0.24,0.00,24.57,28.12,30.94,14.02,46.77,1028.35,2024.74,3335.66,3014.19,3464.92,600.15,599.88,6.86,0000 0000 0000 0000 000000
2018-08-24 08:34:13,-0.01,0.24,0.00,24.57,28.12,30.96,14.03,46.78,1028.34,2024.59,3334.93,3013.98,3464.11,600.26,600.01,6.91,0000 0000 0000 0000 000000
2018-08-24 08:39:14,0.06,0.24,0.00,24.57,28.12,30.95,14.00,46.85,1028.35,2024.57,3333.93,3013.21,3463.50,599.97,599.65,6.96,0000 0000 0000 0000 000000
2018-08-24 08:44:16,0.05,0.24,0.00,24.57,28.14,30.96,14.06,46.87,1028.34,2024.69,3332.98,3012.75,3462.80,600.09,599.78,7.01,0000 0000 0000 0000 000000
2018-08-24 08:49:16,0.02,0.25,0.00,24.58,28.15,30.95,13.98,46.90,1028.35,2024.60,3332.07,3012.02,3462.01,599.97,599.72,7.06,0000 0000 0000 0000 000000
2018-08-24 08:54:17,0.06,0.25,0.00,24.59,28.15,30.97,13.99,46.75,1028.35,2024.47,3331.19,3011.46,3461.19,599.96,599.79,7.11,0000 0000 0000 0000 000000
2018-08-24 08:59:19,-0.03,0.25,0.00,24.60,28.15,31.01,14.04,46.83,1028.39,2024.18,3330.71,3011.00,3460.79,600.19,599.90,7.16,0000 0000 0000 0000 000000
2018-08-24 09:04:20,0.02,0.25,0.00,24.60,28.17,31.03,13.99,46.88,1028.48,2024.06,3330.02,3010.73,3460.09,600.03,599.82,7.21,0000 0000 0000 0000 000000
2018-08-24 09:09:22,0.02,0.25,0.00,24.60,28.17,31.03,14.00,46.81,1028.48,2024.03,3329.36,3010.04,3459.87,600.14,599.89,7.26,0000 0000 0000 0000 000000
2018-08-24 09:14:23,0.01,0.25,0.00,24.60,28.17,31.02,14.10,46.88,1028.44,2024.03,3329.00,3009.99,3459.13,599.94,599.65,7.31,0000 0000 0000 0000 000000
2018-08-24 09:19:25,0.03,0.25,0.00,24.60,28.17,31.02,13.92,46.83,1028.54,2024.04,3328.32,3009.54,3458.96,599.67,599.46,7.36,0000 0000 0000 0000 000000
2018-08-24 09:24:26,0.03,0.25,0.00,24.60,28.18,31.03,14.03,46.90,1028.74,2024.03,3327.73,3009.02,3458.22,599.92,599.81,7.41,0000 0000 0000 0000 000000
2018-08-24 09:29:27,0.01,0.25,0.00,24.61,28.19,31.04,14.02,46.94,1028.72,2024.01,3327.02,3008.86,3457.85,599.99,599.88,7.46,0000 0000 0000 0000 000000
2018-08-24 09:34:28,0.04,0.26,0.00,24.62,28.20,31.02,14.06,46.84,1028.72,2024.01,3326.32,3008.13,3457.07,600.45,600.32,7.51,0000 0000 0000 0000 000000
2018-08-24 09:39:29,0.01,0.26,0.00,24.62,28.20,31.03,14.00,46.83,1028.80,2024.01,3325.79,3007.99,3456.88,600.10,599.94,7.56,0000 0000 0000 0000 000000
2018-08-24 09:44:31,0.03,0.26,0.00,24.63,28.20,31.02,13.97,46.86,1028.81,2024.00,3325.03,3007.62,3456.11,599.80,599.68,7.61,0000 0000 0000 0000 000000
2018-08-24 09:49:32,0.01,0.26,0.00,24.64,28.20,31.07,13.98,46.89,1028.81,2024.00,3324.80,3007.04,3456.00,600.02,599.74,7.66,0000 0000 0000 0000 000000
2018-08-24 09:54:34,0.02,0.26,0.00,24.62,28.21,31.04,14.00,46.85,1028.81,2024.00,3324.01,3007.00,3455.50,599.84,599.69,7.71,0000 0000 0000 0000 000000
2018-08-24 09:59:35,0.03,0.26,0.00,24.63,28.22,31.07,13.95,46.72,1028.82,2024.00,3323.09,3006.50,3455.00,599.78,599.67,7.76,0000 0000 0000 0000 000000
2018-08-24 10:04:37,0.02,0.26,0.00,24.63,28.22,31.06,14.03,46.67,1028.82,2024.00,3322.29,3006.02,3454.67,599.97,599.84,7.81,0000 0000 0000 0000 000000
2018-08-24 10:09:38,0.00,0.26,0.00,24.65,28.22,31.06,13.99,46.67,1028.82,2024.00,3321.99,3005.97,3454.05,600.35,600.20,7.86,0000 0000 0000 0000 000000
2018-08-24 10:14:39,0.03,0.27,0.00,24.65,28.22,31.07,14.00,46.79,1028.82,2024.00,3321.28,3005.36,3453.91,600.07,599.90,7.91,0000 0000 0000 0000 000000
2018-08-24 10:19:41,0.02,0.27,0.00,24.65,28.22,31.05,13.96,46.72,1028.83,2024.01,3320.91,3005.01,3453.10,599.85,599.72,7.97,0000 0000 0000 0000 000000
2018-08-24 10:24:42,0.01,0.27,0.00,24.65,28.22,31.08,13.99,46.75,1028.84,2024.00,3320.26,3004.97,3453.00,599.92,599.77,8.02,0000 0000 0000 0000 000000
2018-08-24 10:29:43,0.01,0.27,0.00,24.66,28.22,31.07,13.98,46.76,1028.85,2024.01,3320.01,3004.68,3452.83,600.10,599.91,8.07,0000 0000 0000 0000 000000
2018-08-24 10:34:45,0.05,0.27,0.00,24.67,28.22,31.08,13.94,46.73,1029.06,2024.00,3319.19,3003.92,3451.96,599.84,599.78,8.12,0000 0000 0000 0000 000000
2018-08-24 10:39:46,0.06,0.27,0.00,24.68,28.23,31.13,14.06,46.75,1029.27,2024.00,3317.41,3003.05,3450.99,600.06,600.08,8.17,0000 0000 0000 0000 000000
2018-08-24 10:44:47,0.04,0.28,0.00,24.67,28.24,31.06,13.97,46.85,1029.30,2024.00,3316.27,3002.52,3450.16,599.92,599.87,8.22,0000 0000 0000 0000 000000
2018-08-24 10:49:48,0.01,0.28,0.00,24.67,28.24,31.08,13.99,46.83,1029.31,2024.00,3316.00,3002.05,3450.00,599.79,599.88,8.27,0000 0000 0000 0000 000000
2018-08-24 10:54:50,0.00,0.28,0.00,24.67,28.24,31.10,13.95,46.77,1029.31,2024.00,3315.78,3002.00,3449.94,599.87,599.95,8.32,0000 0000 0000 0000 000000
2018-08-24 10:59:51,0.02,0.28,0.00,24.68,28.24,31.09,14.02,46.80,1029.31,2024.00,3315.11,3001.98,3449.39,600.10,600.21,8.37,0000 0000 0000 0000 000000
2018-08-24 11:04:52,0.01,0.28,0.00,24.68,28.25,31.10,14.03,46.88,1029.31,2024.00,3315.02,3001.79,3449.04,600.00,600.00,8.42,0000 0000 0000 0000 000000
2018-08-24 11:09:53,0.03,0.28,0.00,24.68,28.25,31.09,14.01,46.80,1029.31,2024.00,3314.51,3001.08,3448.96,599.84,599.88,8.47,0000 0000 0000 0000 000000
2018-08-24 11:14:55,0.01,0.28,0.00,24.69,28.25,31.10,13.99,46.88,1029.32,2023.99,3313.97,3000.98,3448.19,599.91,600.01,8.52,0000 0000 0000 0000 000000
2018-08-24 11:19:56,0.02,0.28,0.00,24.70,28.25,31.09,14.05,46.86,1029.32,2023.99,3313.39,3000.81,3448.00,600.28,600.34,8.57,0000 0000 0000 0000 000000
2018-08-24 11:24:58,0.02,0.28,0.00,24.69,28.25,31.10,14.00,46.83,1029.33,2023.99,3313.00,3000.16,3447.94,599.88,599.98,8.62,0000 0000 0000 0000 000000
2018-08-24 11:29:59,0.00,0.29,0.00,24.69,28.25,31.10,14.00,46.83,1029.33,2023.99,3312.98,3000.02,3447.73,600.05,600.12,8.67,0000 0000 0000 0000 000000
2018-08-24 11:35:01,0.00,0.29,0.00,24.69,28.25,31.11,13.95,46.80,1029.39,2023.99,3312.97,3000.01,3447.61,599.73,599.73,8.72,0000 0000 0000 0000 000000
2018-08-24 11:40:02,0.01,0.29,0.00,24.70,28.25,31.09,14.06,46.82,1029.55,2023.99,3312.73,3000.00,3447.16,600.26,600.39,8.77,0000 0000 0000 0000 000000
2018-08-24 11:45:03,0.01,0.29,0.00,24.70,28.25,31.09,14.03,46.84,1029.49,2023.99,3312.50,3000.00,3447.05,600.17,600.26,8.82,0000 0000 0000 0000 000000
2018-08-24 11:50:05,0.00,0.29,0.00,24.70,28.25,31.09,14.06,46.81,1029.51,2023.99,3312.25,3000.00,3447.03,600.21,600.31,8.87,0000 0000 0000 0000 000000
2018-08-24 11:55:06,0.00,0.29,0.00,24.70,28.25,31.10,14.02,46.77,1029.58,2023.99,3312.11,3000.00,3447.03,600.28,600.37,8.92,0000 0000 0000 0000 000000
2018-08-24 12:00:07,0.00,0.29,0.00,24.69,28.25,31.11,14.00,46.85,1029.57,2023.99,3312.10,3000.00,3447.01,599.87,600.16,8.97,0000 0000 0000 0000 000000
2018-08-24 12:05:08,0.00,0.29,0.00,24.67,28.25,31.13,14.03,46.91,1029.38,2023.99,3312.03,3000.00,3447.01,599.98,600.04,9.02,0000 0000 0000 0000 000000
2018-08-24 12:10:09,0.00,0.29,0.00,24.67,28.25,31.14,14.04,46.82,1029.40,2023.99,3312.00,3000.00,3447.00,600.02,600.23,9.07,0000 0000 0000 0000 000000
2018-08-24 12:15:11,0.00,0.29,0.00,24.68,28.25,31.14,13.98,46.79,1029.41,2023.99,3312.00,2999.98,3447.00,599.82,599.95,9.12,0000 0000 0000 0000 000000
2018-08-24 12:20:12,0.00,0.29,0.00,24.68,28.25,31.13,13.99,46.80,1029.39,2023.99,3311.96,2999.97,3446.98,600.15,600.20,9.17,0000 0000 0000 0000 000000
2018-08-24 12:25:13,0.02,0.29,0.00,24.67,28.25,31.13,14.01,46.86,1029.38,2023.98,3311.45,2999.79,3446.71,600.16,600.20,9.22,0000 0000 0000 0000 000000
2018-08-24 12:30:15,0.04,0.29,0.00,24.67,28.25,31.13,13.99,46.84,1029.37,2023.98,3310.82,2999.14,3446.09,600.17,600.29,9.27,0000 0000 0000 0000 000000
2018-08-24 12:35:15,0.03,0.29,0.00,24.67,28.25,31.12,14.00,46.88,1029.47,2023.96,3310.01,2998.69,3445.37,599.90,600.08,9.32,0000 0000 0000 0000 000000
2018-08-24 12:40:16,0.03,0.29,0.00,24.66,28.25,31.17,14.01,46.83,1029.62,2023.98,3309.23,2998.03,3445.00,599.95,600.30,9.37,0000 0000 0000 0000 000000
2018-08-24 12:45:18,0.02,0.29,0.00,24.67,28.25,31.14,13.95,46.89,1029.61,2023.97,3308.75,2997.97,3444.40,599.74,600.01,9.42,0000 0000 0000 0000 000000
2018-08-24 12:50:19,0.00,0.29,0.00,24.67,28.25,31.15,14.01,46.82,1029.42,2023.96,3308.37,2997.94,3444.09,600.06,600.08,9.47,0000 0000 0000 0000 000000
2018-08-24 12:55:20,0.01,0.29,0.00,24.67,28.25,31.13,13.92,46.83,1029.36,2023.98,3308.04,2997.73,3444.01,599.62,599.75,9.52,0000 0000 0000 0000 000000
2018-08-24 13:00:21,-0.00,0.30,0.00,24.65,28.25,31.16,14.05,46.87,1029.34,2023.97,3308.00,2997.63,3444.01,600.04,600.15,9.57,0000 0000 0000 0000 000000